www.pogodaiklimat.ru

Погода и климат >> Архив погоды >> Россия >> Краснодарский край >> Белая Глина


ПОГОДА в Белой Глине

  • Прогноз погоды в Белой Глине
  • Монитор погоды в Белой Глине

АРХИВ ПОГОДЫ в Белой Глине

Время (UTC), дата Ветер
(напр.,м/с)
 
Видим.   Явления Облачность Т
(С)
Тd
(С)
f
(%)
Тe
(С)
Тes
(С)
Комфортность P
(гПа)
Po
(гПа)
Тmin
(С)
Tmax
(С)
R
(мм)
R24
(мм)
S
(см)
09 19.04 В 6-11
{13}
10 км 8/0
[Ac cast Cs]
+9.4 -8.2 28 +7 +11 1022.0 1013.5
12 19.04 В 5-12
{14}
10 км 10/0
[Ac cast Cs]
+10.3 -7.0 29 +8 +11 1021.3 1012.8
15 19.04 В 8-11
{12}
10 км 10/0
[Ac lent Cs]
+8.5 -9.0 28 +5 +5 1021.9 1013.4 +10.6
18 19.04 В 2
{11}
10 км 8/0
[Ac lent Cs]
+6.3 -7.0 38 +5 +5 1023.1 1014.5
21 19.04 В 3 10 км 10/0
[Cs]
+5.2 -6.5 43 +3 +3 1022.8 1014.2
00 20.04 СВ 2 10 км 3/0
[Ci sp]
+1.5 -5.2 61 -1 -1 1022.6 1013.9
03 20.04 СВ 2 10 км 3/0
[Ac lent]
+0.1 -4.6 71 -3 -3 1023.1 1014.3 -0.0
06 20.04 В 7-11
{11}
10 км 4/0
[Ci sp]
+7.7 -5.3 39 +4 +6 1023.4 1014.9
09 20.04 В 6-12
{14}
10 км 6/0
[Cs]
+11.4 -5.4 30 +9 +14 1023.3 1014.9
12 20.04 В 4
{14}
10 км 8/0
[Cs]
+11.6 -7.5 26 +10 +16 1022.8 1014.4
15 20.04 В 5
{10}
10 км 8/0
[Ac lent Cs]
+10.6 -8.1 26 +8 +9 1022.6 1014.2 +12.8
18 20.04 С 1 10 км 3/0
[Ci fib]
+3.5 -3.7 59 +3 +3 1023.8 1015.1
21 20.04 В 1 10 км 3/0
[Ci fib]
+2.5 -4.6 59 +1 +1 1023.4 1014.7
00 21.04 СВ 1 10 км 4/0
[Ci fib]
+1.7 -2.6 73 0 0 1022.5 1013.8
03 21.04 В 1 10 км 8/0
[Ac trans]
+1.8 -2.4 74 0 +1 1022.5 1013.8 +1.3
06 21.04 СВ 3 10 км 6/0
[Cc]
+9.5 -2.1 44 +8 +14 1022.5 1014.0
09 21.04 В 6-12
{14}
10 км 4/0
[Cc]
+13.8 -6.1 25 +12 +18 1021.7 1013.4
12 21.04 В 6-11
{14}
10 км 6/0
[Cs]
+15.1 -5.5 24 +14 +17 1021.1 1012.8
15 21.04 В 6
{14}
10 км 8/0
[Ac lent Cs]
+13.8 -5.2 26 +12 +12 1021.3 1013.0 +15.1
18 21.04 СВ 1
{10}
10 км 4/0
[Ac lent]
+8.2 -2.8 46 +8 +8 1022.5 1014.0
21 21.04 СВ 2 10 км ясно +5.1 -2.0 60 +3 +3 1022.8 1014.2
00 22.04 СВ 1 10 км ясно +3.0 -1.8 71 +2 +2 1022.9 1014.2
03 22.04 В 1 10 км ясно +1.6 -1.6 79 0 0 1023.6 1014.8 +1.4
06 22.04 В 5 10 км 3/0
[Ci fib]
+10.3 +0.6 51 +8 +12 1023.9 1015.4
09 22.04 В 8-12
{14}
10 км 8/8 1000 м
[Cu med, cong]
+14.0 -3.2 30 +12 +13 1023.6 1015.3
12 22.04 В 4
{13}
10 км 4/4 1500 м
[Cu hum]
+15.2 -4.1 26 +14 +19 1022.8 1014.5
15 22.04 В 5
{11}
10 км 4/1 1500 м
[Cu hum Ci fib]
+15.0 -5.0 25 +14 +14 1022.8 1014.5 +16.0
18 22.04 СВ 2 10 км 3/0
[Ci fib]
+8.9 -2.6 44 +8 +8 1024.5 1016.0
21 22.04 штиль 0 10 км ясно +3.2 -2.6 66 +3 +3 1025.6 1016.9
00 23.04 штиль 0 10 км ясно +1.6 -2.9 72 +1 +1 1026.1 1017.4
03 23.04 штиль 0 10 км ясно +0.5 -3.0 77 -0 0 1027.0 1018.2 0.0
06 23.04 В 2 10 км ясно +12.9 +0.2 42 +12 +21 1027.6 1019.2
09 23.04 В 3 10 км 1/1 1500 м
[Cu hum]
+17.1 -4.2 23 +17 +29 опасность
простуды
1027.5 1019.2
12 23.04 С 2 10 км 6/0
[Ci]
+17.8 -4.6 21 +18 +27 1027.2 1018.9
15 23.04 СВ 2 10 км 1/0
[Ci fib]
+17.6 -4.7 21 +18 +19 1027.1 1018.8 +18.4
18 23.04 Ю 1 10 км ясно +7.9 -0.9 54 +8 +8 1028.1 1019.5
21 23.04 З 2 10 км ясно +6.6 -1.7 55 +5 +5 1028.0 1019.4
00 24.04 З 2 10 км ясно +7.6 -2.7 48 +6 +6 1028.0 1019.4
03 24.04 З 2 10 км 3/0
[Cc]
+6.3 -2.0 55 +4 +5 1028.3 1019.7 +5.5
06 24.04 З 3 10 км 10/0
[Ac lent]
+14.8 0.0 36 +14 +16 1028.0 1019.6
09 24.04 З 4 10 км 8/0
[Cs]
+20.4 -1.4 23 +20 +29 1026.5 1018.3
12 24.04 З 4 10 км 8/0
[Ac lent Cs]
+21.4 -1.2 22 +21 +23 комфорт 1025.4 1017.3
15 24.04 СЗ 2 10 км 10/0
[Cs]
+19.5 -0.9 25 +20 +21 1024.9 1016.7 +21.6
18 24.04 З 3 10 км 10/0
[Cs]
+14.7 +2.6 44 +14 +14 1025.9 1017.6
21 24.04 З 2 10 км ясно +10.1 +1.7 56 +9 +9 1026.4 1017.9
00 25.04 З 2 10 км ясно +8.0 +1.6 64 +6 +6 1026.1 1017.6
03 25.04 ЮЗ 2 10 км ясно +6.8 +2.4 74 +5 +5 1026.5 1017.9 +6.8
06 25.04 ЮЗ 3 10 км ясно +13.8 +5.7 58 +13 +20 1026.7 1018.3
09 25.04 З 2 10 км ясно +19.6 +5.8 40 +21 +37 комфорт 1026.1 1017.9
12 25.04 З 1 10 км ясно +22.6 +2.9 27 +22 +35 комфорт 1024.8 1016.7
15 25.04 СВ 1 10 км ясно +22.2 +1.1 25 +22 +23 комфорт 1023.5 1015.4 +23.5
18 25.04 Ю 2 10 км ясно +12.1 +4.3 59 +11 +11 1024.2 1015.8
21 25.04 З 2 10 км ясно +10.1 +3.8 65 +9 +9 1023.8 1015.3
00 26.04 ЮЗ 1 10 км 4/0
[Cs]
+9.8 +4.7 71 +9 +9 1023.3 1014.8
03 26.04 ЮЗ 2 10 км 8/0
[Cs]
+9.4 +5.6 77 +8 +8 1022.9 1014.5 +8.5

 

Местоположение метеостанции Белая Глина (Краснодарский край, Россия): широта 46.08 долгота 40.88 высота над уровнем моря 69 м.

В архиве по умолчанию представлена погода в Белой Глине за последнюю неделю. Архивные данные за месяц целиком и за предыдущие месяцы, начиная с января 2011 года, Вы можете получить, выбрав интересующий диапазон дат из раскрывающегося списка и нажав кнопку "Ввод!".


*Определитесь, кто Вы:
робот инопланетянин человек

Внимание! Время в таблицах - всемирное. Для получения местного времени необходимо прибавить поправку, которая равна 3 ч.

Смотрите также архив погоды в соседних городах и на ближайших метеорологических станциях:

Погода в Красногвардейском (Ставропольский край, Россия) (54 км)
Погода в Гиганте (Ростовская область, Россия) (61 км)
Погода в Тихорецке (Краснодарский край, Россия) (67 км)
Погода в Новоалександровске (Ставропольский край, Россия) (69 км)
Погода в Кропоткине (Краснодарский край, Россия) (76 км)
Погода в Сосыке (Краснодарский край, Россия) (81 км)
Погода в Городовиковске (Калмыкия, Россия) (84 км)
Погода в Зерноград (Ростовская область, Россия) (96 км)
Погода в Изобильном (Ставропольский край, Россия) (101 км)
Погода в Кущевской (Краснодарский край, Россия) (109 км)

Пояснения к столбцам:

Ветер - указаны скорость ветра в м/с - средняя за 10 мин, порывы в срок и между сроками (в фигурных скобках) и направление, откуда дует ветер: С - северный, СВ - северо-восточный, В - восточный, ЮВ - юго-восточный, Ю - южный, ЮЗ - юго-западный, З - западный, СЗ - северо-западный.
Видимость - горизонтальная дальность видимости в метрах или километрах. При видимости от 1 до 10 км при отсутствии осадков обычно наблюдается дымка, при ухудшении видимости до 1 км и менее - туман. В сухую погоду видимость может ухудшаться дымом, пылью или мглою.
Явления - указаны атмосферные явления, наблюдавшиеся в срок или в последний час перед сроком; фигурными скобками обозначены явления, наблюдавшиеся между сроками (за 1-3 часа до срока); квадратными скобками обозначены град или гололедные отложения с указанием их диаметра в мм.
Облачность - указаны через наклонную черту общая и нижняя облачность в баллах и высота нижней границы облаков в метрах; квадратными скобками обозначены формы облаков: Ci - перистые, Cs - перисто-слоистые, Cc - перисто-кучевые, Ac - высококучевые, As - высокослоистые, Sc - слоисто-кучевые, Ns - слоисто-дождевые, Cu - кучевые, Cb - кучево-дождевые. Подробнее классификацию облаков см. в Атласе облаков (PDF).
T - Температура воздуха - температура, измеренная на высоте 2 м над землей.
Td - Температура точки росы - температура, при понижении до которой содержащийся в воздухе водяной пар достигнет насыщения.
f - Относительная влажность воздуха - влажноcть воздуха, измеренная на высоте 2 м над землей.
Te - Эффективная температура - температура, которую ощущает одетый по сезону человек в тени. Характеристика душности погоды. При расчете учитывается влияние влажности воздуха и скорости ветра на теплоощущения человека.
Tes - Эффективная температура на солнце - температура, которую ощущает человек, с поправкой на солнечный нагрев. Характеристика знойности погоды. Зависит от высоты солнца над горизонтом, облачности и скорости ветра. Ночью, в пасмурную погоду, а также при ветре 12 м/с и более поправка равна нулю.
P - Атмосферное давление - приведенное к уровню моря атмосферное давление.
Po - Атмосферное давление - измеренное на уровне метеостанции атмосферное давление.
Tmin - Минимальная температура - минимум температуры воздуха на высоте 2 м над землей.
Tmax - Максимальная температура - максимум температуры воздуха на высоте 2 м над землей.
R - Количество осадков - Количество выпавших осадков за период времени, мм. При наведении курсора мыши на число - период времени, за который выпало указанное количество осадков.
R24 - Количество осадков - Количество выпавших осадков за 24 часа, мм.
S - Снежный покров - Высота снежного покрова, см. При наведении курсора мыши на число - состояние снежного покрова и степень покрытия местности в баллах.